Terminal Aerodrome Forecast
Issued by NWS Charleston, WV

Current Version | Previous Version | Text Only | Print | Product List | Glossary Off
Versions: 1 2 3 4 5 6 7 8 9 10 11 12 13 14 15 16 17 18 19 20 21 22 23 24 25

000
FTUS41 KRLX 250241 AAA
TAFBKW
TAF AMD
KBKW 250241Z 2503/2524 16012KT P6SM SKC
     FM250800 17007KT P6SM BKN090
     FM251000 18007KT 5SM SHRA BKN070
     FM251100 22014G35KT 2SM +SHRA OVC015
     FM251300 27009G23KT P6SM OVC015
     FM251600 28011G22KT P6SM OVC035
     FM252200 29013G22KT P6SM BKN035=

USA.gov is the U.S. government's official web portal to all federal, state and local government web resources and services.